Location: Arcusa
(42.3167°N, 0.0833°W)
Time: 02:37:58
(UTC+00:00)

Cosmos 2263 Rocket - Pass Details

Date: 25 January 2020
Orbit: 823 x 849 km, 71.0° (Epoch: 22 February)

Event Time Altitude Azimuth Distance (km) Brightness Sun altitude
Exits shadow 06:10:35 13° 315° (NW) 2,247 3.9 -13.1°
Maximum altitude 06:14:59 35° 255° (WSW) 1,343 2.8 -12.3°
Drops below altitude 10° 06:20:03 10° 192° (SSW) 2,462 4.7 -11.4°
Sets 06:22:40 0° 183° (S) 3,395 5.5 -10.9°
